Location: Butte
(46.0040°N, 112.5340°W)
Time: 00:44:35
(UTC-07:00)

Daily predictions for brighter satellites

Satellite Brightness Start Highest point End
(mag) Time Altitude Azimuth Time Altitude Azimuth Time Altitude Azimuth
Lacrosse 5 4.5 04:15:16 16° E 04:15:16 16° E 04:16:24 10° E
USA 234 4.4 04:18:02 10° NE 04:21:52 36° NNE 04:21:52 36° NNE
ATLAS 3B R/B 4.3 04:42:55 23° N 04:42:55 23° N 04:46:11 10° NNE
CENTAUR R/B 3.1 04:49:43 52° NNE 04:49:43 52° NNE 04:55:01 10° NE
ATLAS CENTAUR R/B 4.1 05:10:05 12° NNE 05:10:05 12° NNE 05:11:43 10° NE
COSMO-SKYMED 1 3.3 05:18:27 10° SSE 05:22:04 51° ESE 05:22:04 51° ESE
CZ-4C R/B 3.4 05:20:10 33° NNW 05:23:22 56° NE 05:31:05 10° ESE
EO 1 Del DPAF 4.4 05:25:07 10° SE 05:28:36 41° ENE 05:28:36 41° ENE
CZ-4B R/B 4.3 05:24:09 10° N 05:26:53 31° N 05:26:53 31° N
Cosmos 407 Rocket 3.5 05:30:13 46° S 05:31:47 76° ESE 05:37:02 10° NNE
DELTA 2 R/B (1) 4.2 05:31:25 43° S 05:31:51 44° S 05:37:07 10° ESE
Nadezhda 1 Rocket 3.9 05:32:24 63° WNW 05:32:46 65° W 05:39:03 10° S
CZ-2C R/B 3.8 05:29:54 10° NNE 05:34:07 35° E 05:38:22 10° SSE
COSMOS 2455 2.7 05:34:26 56° SW 05:35:50 84° WNW 05:41:55 10° NNE
Cosmos 1470 3.5 05:32:32 10° S 05:36:25 53° E 05:40:20 10° NNE
NOAA 6 4.3 05:32:41 10° NNE 05:37:53 67° ESE 05:43:02 10° S
IRS-1C Rocket 4.4 05:33:42 10° N 05:37:43 49° NNW 05:37:43 49° NNW
Cosmos 1400 Rocket 3.0 05:41:20 71° ESE 05:41:20 71° ESE 05:45:13 10° SSE
Abrixas rocket 4.1 05:43:12 28° ENE 05:43:12 28° ENE 05:44:59 10° ENE
Cosmos 2263 Rocket 3.2 05:44:47 30° NNW 05:44:47 30° NNW 05:48:14 10° NNE
BREEZE-M DEB (TANK) 3.3 05:47:24 53° NNE 05:47:24 53° NNE 05:53:48 10° E
Cosmos 1140 Rocket 4.1 05:45:23 10° S 05:50:22 55° ESE 05:55:23 10° NNE
ISS -1.4 05:53:09 16° S 05:53:09 16° S 05:54:05 10° SSE
PAYLOAD A 4.0 05:46:29 10° NNE 05:51:29 75° ESE 05:56:17 10° S
SKYMED 3 4.5 05:48:22 10° S 05:52:25 69° SW 05:52:25 69° SW
Lacrosse 5 1.9 05:54:30 54° WSW 05:54:46 54° SW 05:59:41 10° SSE
Meteor 2-13 Rocket 4.4 05:49:16 10° S 05:55:24 89° E 06:01:33 10° N
Cosmos 1953 4.1 06:00:36 20° N 06:00:36 20° N 06:01:57 10° N
Cosmos 2278 Rocket 4.2 05:55:35 10° SSE 06:00:20 28° ESE 06:05:06 10° NE
Cosmos 2181 Rocket 3.9 05:58:45 10° N 06:05:07 83° W 06:11:19 10° S
USA 234 4.1 06:00:53 10° NE 06:06:39 35° N 06:09:13 26° NW
SKYMED 2 3.8 06:06:38 10° S 06:10:42 45° WSW 06:10:42 45° WSW
Cosmos 1023 Rocket 4.4 06:06:42 10° SSW 06:11:47 85° ESE 06:16:54 10° NNE
Cosmos 1408 Rocket 4.4 06:08:36 10° N 06:12:51 51° ENE 06:17:07 10° SSE
MSX 4.0 06:07:45 10° NNE 06:13:32 74° ESE 06:19:15 10° S
Cosmos-2242 3.7 06:16:57 10° S 06:21:11 57° E 06:25:25 10° NNE
Cosmos 1844 Rocket 2.5 06:19:14 10° SSW 06:24:47 72° WNW 06:30:22 10° NNE
Cosmos 1190 Rocket 4.5 06:25:17 26° WSW 06:27:23 37° WNW 06:32:13 10° N
Meteor 1-16 Rocket 4.4 06:21:45 10° S 06:27:25 76° E 06:32:55 10° NNE
Cosmos 332 Rocket 3.7 06:24:52 14° NNW 06:29:11 86° WSW 06:34:05 10° SSE
Cosmos 1844 3.7 06:23:31 10° SSW 06:29:17 85° WNW 06:35:01 10° NNE
SL-14 R/B 3.4 06:30:56 25° NW 06:32:49 46° W 06:36:30 10° SSW
ATLAS 3B R/B 4.4 06:30:10 13° NW 06:33:26 17° N 06:37:44 10° NE
IDEFIX/ARIANE 42P 2.8 06:29:27 10° N 06:34:31 48° WNW 06:39:34 10° SW
Cosmos 1741 Rocket 4.4 06:30:03 10° S 06:35:15 66° ESE 06:40:28 10° NNE
COSMOS 2406 3.5 06:33:58 19° NW 06:37:51 47° WSW 06:43:13 10° S
Cosmos 2082 Rocket 3.3 06:34:08 10° NNW 06:39:28 41° NE 06:44:44 10° SE
CENTAUR R/B 3.7 06:36:55 21° WNW 06:39:47 28° NNW 06:45:57 10° NNE
Okean-O 3.2 06:36:12 10° N 06:40:15 35° WNW 06:44:16 10° SW
Cosmos 1484 Rocket 3.0 06:37:13 10° NNE 06:40:56 69° ESE 06:44:39 10° S
Cosmos 1315 Rocket 3.0 06:39:33 16° NNW 06:42:25 45° W 06:46:13 10° SSW
SJ-12 3.8 06:38:29 10° N 06:42:34 67° WNW 06:46:40 10° SSW
Okean 3 Rocket 4.1 06:40:39 14° NNW 06:44:03 36° W 06:48:04 10° SSW
COSMOS 2441 4.3 06:40:05 10° N 06:44:50 62° WNW 06:49:33 10° SSW
Ariane Rocket 4.0 06:40:31 10° NNE 06:45:30 51° E 06:50:28 10° S
Shenzhou-11 Module 4.1 06:44:57 10° SW 06:47:26 23° SSE 06:49:55 10° ESE
Cosmos 1076 Rocket 4.2 06:45:49 13° NNW 06:49:04 32° W 06:52:54 10° SSW
ATLAS CENTAUR R/B 1.8 06:46:21 13° NNW 06:49:49 59° NE 06:54:01 10° SE
Cosmos 2151 3.5 06:49:47 10° N 06:54:05 63° E 06:58:20 10° SSE
Cosmos 1766 Rocket 3.7 06:50:05 10° NNW 06:54:19 50° W 06:58:34 10° SSW
Cosmos 614 Rocket 4.2 06:50:36 10° SW 06:55:29 44° WNW 07:00:23 10° N
COSMO-SKYMED 1 4.2 06:56:39 10° SW 06:59:13 15° W 06:59:18 15° W
Cosmos 2058 2.9 07:00:50 10° N 07:05:04 89° ENE 07:09:17 10° S
Cosmos 2208 Rocket 4.1 06:59:44 10° NNW 07:05:09 67° WSW 07:10:33 10° S
Thor Agena Rocket 3.7 07:00:05 10° S 07:05:11 56° WSW 07:10:23 10° NNW
FAST Rocket 4.4 07:05:10 10° SSW 07:07:42 44° WNW 07:10:56 10° N
Cosmos 1626 2.6 07:04:31 10° NNW 07:08:02 39° W 07:11:31 10° SSW
Cosmos 2184 Rocket 4.0 07:03:37 10° SSW 07:09:45 60° WNW 07:16:01 10° N
Timation 1 Rocket 4.4 07:05:28 10° SW 07:11:24 60° WNW 07:17:22 10° NNE
Cosmos 1726 4.0 07:08:11 10° SSE 07:11:36 34° E 07:15:00 10° NNE
YAOGAN 1 3.4 07:07:27 10° NNE 07:11:44 55° E 07:15:58 10° S
CZ-4C R/B 3.4 07:05:22 11° NW 07:12:00 43° WSW 07:19:26 10° S
CZ-2C R/B 3.1 07:08:25 10° N 07:12:15 27° WNW 07:16:07 10° WSW
Cosmos 1470 4.5 07:10:46 10° W 07:12:52 14° WNW 07:14:59 10° NW
Cosmos 371 Rocket 4.0 07:12:40 10° NW 07:17:05 35° WSW 07:21:29 10° SSW
Cosmos 1842 Rocket 3.6 07:13:17 10° S 07:17:45 90° ESE 07:22:16 10° N
Abrixas rocket 2.1 07:15:39 13° WNW 07:18:30 81° NNE 07:21:46 10° ESE
Cosmos 1833 Rocket 2.8 07:13:10 10° NNW 07:18:52 81° ENE 07:24:30 10° SSE
Centaur D-1A AC-31 4.3 07:14:43 10° SSW 07:19:54 25° SSE 07:36:35 10° ESE
IRAS Rocket 4.5 07:16:19 10° NNE 07:21:59 80° ESE 07:27:37 10° SSW
COSMOS 2455 4.1 07:18:06 10° W 07:22:41 22° NW 07:27:18 10° NNE
AQUARIUS 4.2 07:21:10 10° N 07:25:36 56° WNW 07:30:00 10° SSW
Cosmos 1850 Rocket 4.3 07:22:06 10° SW 07:27:09 46° WNW 07:32:16 10° NNE
Nadezhda 3 Rocket 4.1 07:23:02 10° NNW 07:29:22 68° W 07:35:37 10° S
SL-27 R/B 2.8 07:29:18 10° NNW 07:32:50 48° WSW 07:36:22 10° S
CZ-4 R/B 1.5 07:31:32 10° N 07:35:38 55° WNW 07:39:38 10° SSW
BREEZE-M DEB (TANK) 2.2 07:32:26 10° WNW 07:37:14 56° N 07:39:30 10° E
Meteor 2-15 4.4 07:32:21 10° NNW 07:38:24 71° W 07:44:24 10° S
